Retour au catalogue

STARLINK-36301

ActifCommunicationsVLEO
NORAD 67932·PAYLOAD·🇺🇸 United States

Lancé Feb 24, 2026 depuis Vandenberg Space Force Base

Loading…

Prochains Passages (prochaines 24 heures)

TLE

FraisSource: CelesTrak SupGP

Époque: Sep 15, 2026, 04:11 UTC

1 67932C 26037A   26258.17479167  .00000075  00000+0  27149-5 0  2587
2 67932  43.0032 201.0396 0001434 273.2434 137.7134 15.27570690    18

Suivez STARLINK-36301 en temps réel avec AllMySat

Download on the App Store